Location: Grust
(42.8833°N, 0.0333°W)
Time: 13:51:21
(UTC+00:00)

YAOGAN 1 - Pass Details

Date: 25 October 2020
Orbit: 618 x 620 km, 97.9° (Epoch: 25 November)

Event Time Altitude Azimuth Distance (km) Brightness Sun altitude
Rises 17:42:19 0° 133° (SE) 2,887 5.6 -8.1°
Reaches altitude 10° 17:44:50 10° 119° (ESE) 1,986 4.7 -8.6°
Maximum altitude 17:48:14 23° 66° (ENE) 1,327 3.7 -9.2°
Drops below altitude 10° 17:51:39 10° 15° (NNE) 1,997 4.9 -9.8°
Sets 17:54:11 0° 1° (N) 2,907 5.9 -10.2°
